| time (UTC) | temp C | wind direction | speed KPH | gust KPH | rain 1hr cm | rain 24hr cm | rain mn cm | humidity % | barometer mb |
| 20260507181541 | 17 | 233 | 0.0 | 0.0 | 0.00 | 0.61 | 0.41 | 33 | 1004.6 |
| 20260507180040 | 18 | 173 | 0.0 | 11.3 | 0.00 | 0.61 | 0.41 | 35 | 1004.8 |
| 20260507174549 | 17 | 166 | 3.2 | 8.0 | 0.00 | 0.61 | 0.41 | 38 | 1004.8 |
| 20260507173036 | 17 | 277 | 1.6 | 11.3 | 0.00 | 0.61 | 0.41 | 35 | 1004.8 |
| 20260507171545 | 17 | 290 | 4.8 | 16.1 | 0.00 | 0.61 | 0.41 | 36 | 1004.9 |
| 20260507170033 | 17 | 193 | 3.2 | 11.3 | 0.00 | 0.61 | 0.41 | 39 | 1005.0 |
| 20260507164536 | 17 | 144 | 1.6 | 9.7 | 0.00 | 0.61 | 0.41 | 41 | 1005.1 |
| 20260507163031 | 17 | 63 | 1.6 | 11.3 | 0.00 | 0.61 | 0.41 | 43 | 1005.4 |
| 20260507161530 | 16 | 211 | 3.2 | 14.5 | 0.00 | 0.61 | 0.41 | 43 | 1005.4 |
| 20260507160031 | 16 | 71 | 1.6 | 6.4 | 0.00 | 0.61 | 0.41 | 45 | 1005.5 |
| 20260507154525 | 16 | 186 | 1.6 | 11.3 | 0.00 | 0.61 | 0.41 | 47 | 1005.6 |
| 20260507153026 | 16 | 18 | 1.6 | 12.9 | 0.00 | 0.61 | 0.41 | 52 | 1005.7 |
| 20260507151519 | 15 | 205 | 4.8 | 11.3 | 0.00 | 0.61 | 0.41 | 53 | 1005.8 |
| 20260507150018 | 15 | 260 | 3.2 | 14.5 | 0.00 | 0.61 | 0.41 | 57 | 1005.9 |
| 20260507144515 | 15 | 155 | 1.6 | 8.0 | 0.00 | 0.61 | 0.41 | 60 | 1006.0 |
| 20260507143014 | 15 | 133 | 3.2 | 8.0 | 0.00 | 0.61 | 0.41 | 61 | 1006.2 |
| 20260507141513 | 15 | 277 | 1.6 | 6.4 | 0.00 | 0.61 | 0.41 | 59 | 1006.2 |
| 20260507140026 | 14 | 245 | 0.0 | 8.0 | 0.00 | 0.61 | 0.41 | 63 | 1006.2 |
| 20260507134510 | 13 | 355 | 0.0 | 4.8 | 0.00 | 0.61 | 0.41 | 66 | 1006.2 |
| 20260507133008 | 13 | 321 | 0.0 | 9.7 | 0.00 | 0.61 | 0.41 | 72 | 1006.2 |
| 20260507131506 | 12 | 279 | 0.0 | 8.0 | 0.00 | 0.61 | 0.41 | 76 | 1006.3 |
| 20260507130004 | 11 | 235 | 0.0 | 8.0 | 0.00 | 0.61 | 0.41 | 82 | 1006.5 |
| 20260507124504 | 10 | 356 | 1.6 | 6.4 | 0.00 | 0.61 | 0.41 | 85 | 1006.6 |
| 20260507123106 | 10 | 241 | 1.6 | 9.7 | 0.00 | 0.61 | 0.41 | 88 | 1006.7 |
| 20260507121601 | 10 | 270 | 0.0 | 3.2 | 0.00 | 0.61 | 0.41 | 90 | 1006.7 |
| 20260507120059 | 9 | 226 | 0.0 | 6.4 | 0.00 | 0.61 | 0.41 | 91 | 1006.6 |
| 20260507114558 | 8 | 264 | 0.0 | 3.2 | 0.00 | 0.61 | 0.41 | 92 | 1006.4 |
| 20260507113128 | 8 | 245 | 0.0 | 3.2 | 0.00 | 0.61 | 0.41 | 92 | 1006.4 |
| 20260507111556 | 8 | 219 | 0.0 | 3.2 | 0.00 | 0.61 | 0.41 | 93 | 1006.3 |
| 20260507110058 | 8 | 233 | 0.0 | 1.6 | 0.00 | 0.61 | 0.41 | 92 | 1006.2 |
| 20260507104606 | 8 | 216 | 0.0 | 1.6 | 0.03 | 0.61 | 0.41 | 92 | 1006.1 |
| 20260507103055 | 8 | 216 | 0.0 | 0.0 | 0.05 | 0.61 | 0.41 | 92 | 1006.4 |
| 20260507101555 | 8 | 216 | 0.0 | 0.0 | 0.13 | 0.61 | 0.41 | 91 | 1006.0 |
| 20260507100057 | 8 | 216 | 0.0 | 1.6 | 0.20 | 0.61 | 0.41 | 91 | 1005.9 |
| 20260507094601 | 8 | 40 | 0.0 | 1.6 | 0.25 | 0.58 | 0.38 | 90 | 1005.7 |
| 20260507093050 | 8 | 27 | 0.0 | 3.2 | 0.25 | 0.56 | 0.36 | 90 | 1005.6 |
| 20260507091549 | 8 | 256 | 0.0 | 4.8 | 0.18 | 0.48 | 0.28 | 89 | 1005.6 |
| 20260507090046 | 8 | 248 | 0.0 | 4.8 | 0.15 | 0.41 | 0.20 | 88 | 1005.9 |
| 20260507084554 | 8 | 238 | 0.0 | 3.2 | 0.08 | 0.33 | 0.13 | 87 | 1005.9 |
| 20260507083042 | 9 | 225 | 0.0 | 4.8 | 0.08 | 0.30 | 0.10 | 86 | 1005.8 |
| 20260507081540 | 9 | 239 | 0.0 | 6.4 | 0.08 | 0.30 | 0.10 | 84 | 1005.7 |
| 20260507080036 | 10 | 77 | 3.2 | 12.9 | 0.03 | 0.25 | 0.05 | 82 | 1005.8 |
| 20260507074534 | 10 | 204 | 1.6 | 11.3 | 0.03 | 0.25 | 0.05 | 82 | 1005.5 |
| 20260507073028 | 11 | 246 | 0.0 | 8.0 | 0.00 | 0.23 | 0.03 | 81 | 1005.5 |
| 20260507071529 | 11 | 280 | 1.6 | 6.4 | 0.00 | 0.23 | 0.03 | 81 | 1004.7 |
| 20260507070026 | 12 | 228 | 0.0 | 6.4 | 0.00 | 0.23 | 0.03 | 82 | 1004.5 |
| 20260507064523 | 12 | 348 | 0.0 | 4.8 | 0.00 | 0.23 | 0.03 | 82 | 1004.7 |
| 20260507063021 | 12 | 267 | 0.0 | 4.8 | 0.03 | 0.23 | 0.03 | 81 | 1005.0 |
| 20260507061520 | 12 | 263 | 0.0 | 11.3 | 0.03 | 0.23 | 0.03 | 82 | 1004.7 |
| 20260507060031 | 12 | 214 | 0.0 | 8.0 | 0.03 | 0.23 | 0.03 | 83 | 1004.6 |
| 20260507054523 | 12 | 138 | 1.6 | 8.0 | 0.03 | 0.23 | 0.03 | 82 | 1004.9 |
| 20260507053015 | 13 | 132 | 0.0 | 11.3 | 0.00 | 0.20 | 0.00 | 83 | 1005.2 |
| 20260507051511 | 13 | 9 | 0.0 | 8.0 | 0.00 | 0.20 | 0.00 | 85 | 1005.1 |
| 20260507050027 | 13 | 268 | 0.0 | 4.8 | 0.00 | 0.20 | 0.00 | 88 | 1004.8 |
| 20260507044511 | 13 | 311 | 1.6 | 12.9 | 0.00 | 0.20 | 0.00 | 89 | 1004.9 |
| 20260507043005 | 14 | 335 | 1.6 | 6.4 | 0.00 | 0.20 | 0.00 | 91 | 1004.8 |
| 20260507041504 | 14 | 167 | 0.0 | 6.4 | 0.00 | 0.20 | 0.00 | 93 | 1004.7 |
| 20260507040111 | 15 | 281 | 0.0 | 3.2 | 0.00 | 0.20 | 0.00 | 93 | 1004.8 |
| 20260507034607 | 15 | 206 | 0.0 | 4.8 | 0.00 | 0.20 | 0.20 | 93 | 1004.9 |
| 20260507033103 | 14 | 223 | 0.0 | 4.8 | 0.00 | 0.20 | 0.20 | 93 | 1004.6 |
| 20260507031558 | 14 | 204 | 1.6 | 6.4 | 0.00 | 0.20 | 0.20 | 93 | 1004.6 |
| 20260507030058 | 14 | 209 | 1.6 | 6.4 | 0.00 | 0.20 | 0.20 | 93 | 1004.3 |
| 20260507024557 | 14 | 148 | 1.6 | 4.8 | 0.00 | 0.20 | 0.20 | 93 | 1004.3 |
| 20260507023056 | 14 | 210 | 0.0 | 6.4 | 0.00 | 0.20 | 0.20 | 93 | 1004.4 |
| 20260507021605 | 14 | 210 | 0.0 | 4.8 | 0.00 | 0.20 | 0.20 | 93 | 1004.3 |
| 20260507020056 | 14 | 200 | 0.0 | 4.8 | 0.00 | 0.20 | 0.20 | 93 | 1004.5 |
| 20260507014558 | 14 | 219 | 1.6 | 4.8 | 0.00 | 0.20 | 0.20 | 93 | 1004.3 |
| 20260507013053 | 14 | 212 | 0.0 | 6.4 | 0.00 | 0.20 | 0.20 | 93 | 1004.4 |
| 20260507011557 | 14 | 211 | 1.6 | 4.8 | 0.00 | 0.20 | 0.20 | 93 | 1004.7 |
| 20260507010053 | 14 | 173 | 1.6 | 6.4 | 0.00 | 0.20 | 0.20 | 93 | 1004.7 |
| 20260507004553 | 13 | 204 | 1.6 | 6.4 | 0.00 | 0.20 | 0.20 | 93 | 1004.8 |
| 20260507003052 | 13 | 167 | 1.6 | 8.0 | 0.03 | 0.20 | 0.20 | 93 | 1004.6 |
| 20260507001554 | 13 | 195 | 1.6 | 6.4 | 0.03 | 0.20 | 0.20 | 93 | 1004.5 |
| 20260507000054 | 14 | 197 | 1.6 | 4.8 | 0.05 | 0.20 | 0.20 | 93 | 1004.4 |
| 20260506234605 | 14 | 208 | 0.0 | 4.8 | 0.05 | 0.20 | 0.20 | 92 | 1004.3 |
| 20260506233048 | 14 | 217 | 0.0 | 6.4 | 0.03 | 0.18 | 0.18 | 92 | 1004.3 |
| 20260506231547 | 14 | 207 | 1.6 | 4.8 | 0.03 | 0.18 | 0.18 | 92 | 1004.2 |
| 20260506230047 | 14 | 206 | 1.6 | 4.8 | 0.00 | 0.15 | 0.15 | 92 | 1004.2 |
| 20260506224547 | 14 | 207 | 1.6 | 6.4 | 0.00 | 0.15 | 0.15 | 92 | 1004.3 |
| 20260506223048 | 15 | 214 | 1.6 | 4.8 | 0.03 | 0.15 | 0.15 | 92 | 1004.4 |
| 20260506221542 | 15 | 212 | 3.2 | 6.4 | 0.05 | 0.15 | 0.15 | 91 | 1004.5 |
| 20260506220041 | 15 | 209 | 1.6 | 6.4 | 0.05 | 0.15 | 0.15 | 91 | 1004.7 |
| 20260506214543 | 15 | 216 | 1.6 | 6.4 | 0.05 | 0.15 | 0.15 | 90 | 1004.6 |
| 20260506213038 | 15 | 207 | 1.6 | 8.0 | 0.03 | 0.13 | 0.13 | 89 | 1004.9 |
| 20260506211537 | 15 | 208 | 3.2 | 9.7 | 0.03 | 0.10 | 0.10 | 88 | 1005.0 |
| 20260506210038 | 15 | 180 | 1.6 | 6.4 | 0.03 | 0.10 | 0.10 | 88 | 1005.0 |
| 20260506204548 | 16 | 203 | 1.6 | 6.4 | 0.03 | 0.10 | 0.10 | 87 | 1005.2 |
| 20260506203033 | 16 | 189 | 1.6 | 8.0 | 0.05 | 0.10 | 0.10 | 86 | 1005.4 |
| 20260506201535 | 16 | 217 | 3.2 | 9.7 | 0.05 | 0.08 | 0.08 | 86 | 1005.4 |
| 20260506200034 | 16 | 176 | 3.2 | 11.3 | 0.08 | 0.08 | 0.08 | 85 | 1005.3 |
| 20260506194533 | 16 | 201 | 1.6 | 6.4 | 0.08 | 0.08 | 0.08 | 83 | 1005.1 |
| 20260506193028 | 16 | 176 | 3.2 | 9.7 | 0.05 | 0.05 | 0.05 | 82 | 1005.5 |
| 20260506191528 | 17 | 214 | 0.0 | 9.7 | 0.03 | 0.03 | 0.03 | 79 | 1005.5 |
| 20260506190026 | 18 | 198 | 4.8 | 16.1 | 0.00 | 0.00 | 0.00 | 71 | 1005.4 |
| 20260506184525 | 19 | 219 | 1.6 | 11.3 | 0.00 | 0.00 | 0.00 | 68 | 1005.5 |
| 20260506183023 | 20 | 217 | 4.8 | 20.9 | 0.00 | 0.00 | 0.00 | 65 | 1005.6 |